• In Netherlands
  • List of Countries
  • For 7 days
  • Water Temperature
  • Satellite Maps
  • Weather Map
  • Weather Widgets
  • user-avatar
    Login

    Hourly Weather Herāt

    Today, 20 February, Monday

    Time Temperature Precipitation Wind Pressure Humidity
    00:00 -3°C° 0 mm 2 mps 685 mmHg 72%
    01:00 -3°C° 0 mm 2 mps 685 mmHg 69%
    02:00 -3°C° 0 mm 2 mps 684 mmHg 66%
    03:00 -3°C° 0 mm 2 mps 684 mmHg 63%
    04:00 -7°C° 0 mm 2 mps 683 mmHg 64%
    05:00 -7°C° 0 mm 2 mps 683 mmHg 61%
    06:00 -6°C° 0 mm 2 mps 683 mmHg 57%
    07:00 -6°C° 0 mm 2 mps 683 mmHg 53%
    08:00 -4°C° 0 mm 2 mps 683 mmHg 54%
    09:00 -1°C° 0 mm 2 mps 684 mmHg 55%
    10:00 +3°C° 0 mm 2 mps 684 mmHg 57%
    11:00 +3°C° 0 mm 2 mps 684 mmHg 60%
    12:00 +4°C° 0 mm 2 mps 683 mmHg 64%
    13:00 +4°C° 0 mm 2 mps 683 mmHg 67%
    14:00 +4°C° 0 mm 2 mps 683 mmHg 68%
    15:00 +3°C° 0 mm 3 mps 682 mmHg 68%
    16:00 +2°C° 0 mm 3 mps 682 mmHg 68%
    17:00 0°C° 0 mm 3 mps 682 mmHg 68%
    18:00 -2°C° 0 mm 3 mps 681 mmHg 68%
    19:00 -5°C° 0 mm 3 mps 681 mmHg 69%
    20:00 -5°C° 0 mm 3 mps 681 mmHg 65%
    21:00 -5°C° 0 mm 3 mps 681 mmHg 60%
    22:00 -5°C° 0 mm 3 mps 680 mmHg 56%
    23:00 -5°C° 0 mm 3 mps 680 mmHg 53%

    Tomorrow, 21 February, Tuesday

    Time Temperature Precipitation Wind Pressure Humidity
    00:00 -4°C° 0 mm 2 mps 680 mmHg 50%
    01:00 -5°C° 0 mm 2 mps 680 mmHg 47%
    02:00 -5°C° 0 mm 2 mps 679 mmHg 45%
    03:00 -5°C° 0 mm 2 mps 679 mmHg 42%
    04:00 -5°C° 0 mm 2 mps 679 mmHg 40%
    05:00 -4°C° 0 mm 2 mps 679 mmHg 40%
    06:00 -4°C° 0 mm 2 mps 679 mmHg 40%
    07:00 -4°C° 0 mm 2 mps 679 mmHg 40%
    08:00 -1°C° 0 mm 2 mps 679 mmHg 47%
    09:00 +3°C° 0 mm 1 mps 680 mmHg 54%
    10:00 +6°C° 0 mm 1 mps 680 mmHg 61%
    11:00 +6°C° 0 mm 1 mps 680 mmHg 62%
    12:00 +6°C° 0 mm 1 mps 679 mmHg 64%
    13:00 +7°C° 0 mm 1 mps 679 mmHg 65%
    14:00 +7°C° 0 mm 1 mps 678 mmHg 62%
    15:00 +7°C° 0 mm 1 mps 678 mmHg 59%
    16:00 +6°C° 0 mm 1 mps 678 mmHg 56%
    17:00 +4°C° 0 mm 1 mps 677 mmHg 58%
    18:00 +1°C° 0 mm 1 mps 676 mmHg 59%
    19:00 -1°C° 0 mm 1 mps 676 mmHg 60%
    20:00 -1°C° 0 mm 1 mps 676 mmHg 58%
    21:00 -1°C° 0 mm 1 mps 676 mmHg 56%
    22:00 -1°C° 0 mm 1 mps 676 mmHg 54%
    23:00 0°C° 0 mm 1 mps 676 mmHg 52%

    Day after tomorrow, 22 February, Wednesday

    Time Temperature Precipitation Wind Pressure Humidity
    00:00 0°C° 0 mm 1 mps 676 mmHg 50%
    01:00 0°C° 0 mm 1 mps 676 mmHg 48%
    02:00 0°C° 0 mm 1 mps 676 mmHg 47%
    03:00 -2°C° 0 mm 2 mps 675 mmHg 46%
    04:00 -1°C° 0 mm 2 mps 675 mmHg 44%
    05:00 -1°C° 0 mm 2 mps 676 mmHg 44%
    06:00 +1°C° 0 mm 2 mps 676 mmHg 44%
    07:00 +1°C° 0 mm 2 mps 676 mmHg 44%
    08:00 +3°C° 0 mm 2 mps 677 mmHg 49%
    09:00 +4°C° 0 mm 3 mps 678 mmHg 55%
    10:00 +7°C° 0 mm 3 mps 678 mmHg 61%
    11:00 +8°C° 0 mm 3 mps 678 mmHg 61%
    12:00 +8°C° 0 mm 3 mps 678 mmHg 60%
    13:00 +8°C° 0 mm 4 mps 677 mmHg 60%
    14:00 +8°C° 0 mm 4 mps 677 mmHg 57%
    15:00 +9°C° 0 mm 3 mps 677 mmHg 54%
    16:00 +9°C° 0 mm 3 mps 677 mmHg 51%
    17:00 +8°C° 0 mm 3 mps 677 mmHg 50%
    18:00 +5°C° 0 mm 3 mps 677 mmHg 48%
    19:00 +4°C° 0 mm 3 mps 677 mmHg 47%
    20:00 +3°C° 0 mm 3 mps 678 mmHg 48%
    21:00 +3°C° 0 mm 3 mps 678 mmHg 48%
    22:00 +3°C° 0 mm 3 mps 678 mmHg 48%
    23:00 +3°C° 0 mm 3 mps 678 mmHg 48%

    23 February, Thursday

    Time Temperature Precipitation Wind Pressure Humidity
    00:00 +3°C° 0 mm 3 mps 678 mmHg 48%
    01:00 +3°C° 0 mm 3 mps 678 mmHg 48%
    02:00 +3°C° 0 mm 3 mps 678 mmHg 48%
    03:00 +2°C° 0 mm 3 mps 678 mmHg 48%
    04:00 +2°C° 0 mm 3 mps 678 mmHg 48%
    05:00 +2°C° 0 mm 3 mps 678 mmHg 48%
    06:00 +2°C° 0 mm 3 mps 679 mmHg 48%
    07:00 +3°C° 0 mm 4 mps 679 mmHg 48%
    08:00 +4°C° 0 mm 4 mps 680 mmHg 52%
    09:00 +6°C° 0 mm 4 mps 680 mmHg 56%
    10:00 +8°C° 0 mm 4 mps 681 mmHg 60%
    11:00 +8°C° 0 mm 4 mps 681 mmHg 59%
    12:00 +10°C° 0 mm 4 mps 681 mmHg 57%
    13:00 +11°C° 0 mm 4 mps 680 mmHg 56%
    14:00 +11°C° 0 mm 4 mps 680 mmHg 53%
    15:00 +11°C° 0 mm 4 mps 680 mmHg 51%
    16:00 +11°C° 0 mm 4 mps 679 mmHg 48%
    17:00 +10°C° 0 mm 4 mps 679 mmHg 46%
    18:00 +8°C° 0 mm 4 mps 679 mmHg 44%
    19:00 +7°C° 0 mm 4 mps 679 mmHg 43%
    20:00 +7°C° 0 mm 4 mps 679 mmHg 42%
    21:00 +6°C° 0 mm 4 mps 680 mmHg 42%
    22:00 +6°C° 0 mm 4 mps 680 mmHg 42%
    23:00 +6°C° 0 mm 4 mps 680 mmHg 42%

    24 February, Friday

    Time Temperature Precipitation Wind Pressure Humidity
    00:00 +6°C° 0 mm 4 mps 679 mmHg 43%
    01:00 +6°C° 0 mm 4 mps 679 mmHg 44%
    02:00 +7°C° 0 mm 3 mps 679 mmHg 44%
    03:00 +7°C° 0 mm 3 mps 679 mmHg 45%
    04:00 +7°C° 0 mm 3 mps 678 mmHg 46%
    05:00 +8°C° 0 mm 3 mps 679 mmHg 46%
    06:00 +8°C° 0 mm 3 mps 679 mmHg 46%
    07:00 +8°C° 0 mm 3 mps 679 mmHg 47%
    08:00 +9°C° 0 mm 3 mps 679 mmHg 51%
    09:00 +9°C° 0 mm 3 mps 680 mmHg 55%
    10:00 +10°C° 0 mm 3 mps 680 mmHg 60%
    11:00 +10°C° 0 mm 3 mps 680 mmHg 60%
    12:00 +10°C° 0 mm 3 mps 680 mmHg 60%
    13:00 +10°C° 0 mm 2 mps 680 mmHg 60%
    14:00 +10°C° 0.1 mm 2 mps 680 mmHg 62%
    15:00 +10°C° 0.1 mm 2 mps 680 mmHg 64%
    16:00 +10°C° 0.1 mm 2 mps 680 mmHg 66%
    17:00 +9°C° 0.4 mm 2 mps 681 mmHg 71%
    18:00 +8°C° 0.4 mm 2 mps 681 mmHg 75%
    19:00 +7°C° 0.4 mm 2 mps 681 mmHg 79%
    20:00 +7°C° 0.1 mm 2 mps 682 mmHg 79%
    21:00 +7°C° 0.1 mm 2 mps 682 mmHg 80%
    22:00 +6°C° 0.1 mm 2 mps 682 mmHg 80%
    23:00 +6°C° 0 mm 2 mps 682 mmHg 81%

    25 February, Saturday

    Time Temperature Precipitation Wind Pressure Humidity
    00:00 +6°C° 0 mm 2 mps 682 mmHg 82%
    01:00 +5°C° 0 mm 2 mps 682 mmHg 83%
    02:00 +5°C° 0.1 mm 2 mps 682 mmHg 84%
    03:00 +6°C° 0.1 mm 1 mps 682 mmHg 84%
    04:00 +6°C° 0.1 mm 1 mps 682 mmHg 85%
    05:00 +6°C° 0 mm 1 mps 682 mmHg 85%
    06:00 +5°C° 0 mm 1 mps 683 mmHg 85%
    07:00 +5°C° 0 mm 1 mps 683 mmHg 86%
    08:00 +6°C° 0 mm 1 mps 683 mmHg 84%
    09:00 +7°C° 0 mm 1 mps 683 mmHg 82%
    10:00 +8°C° 0 mm 1 mps 684 mmHg 80%
    11:00 +9°C° 0 mm 1 mps 683 mmHg 78%
    12:00 +9°C° 0 mm 1 mps 682 mmHg 77%
    13:00 +10°C° 0 mm 1 mps 682 mmHg 75%
    14:00 +10°C° 0 mm 1 mps 682 mmHg 75%
    15:00 +10°C° 0 mm 1 mps 681 mmHg 75%
    16:00 +10°C° 0 mm 1 mps 681 mmHg 75%
    17:00 +9°C° 0 mm 1 mps 681 mmHg 77%
    18:00 +8°C° 0 mm 1 mps 681 mmHg 80%
    19:00 +7°C° 0 mm 1 mps 680 mmHg 82%
    20:00 +7°C° 0 mm 1 mps 680 mmHg 83%
    21:00 +7°C° 0 mm 1 mps 680 mmHg 84%
    22:00 +5°C° 0 mm 0 mps 680 mmHg 85%
    23:00 +6°C° 0 mm 1 mps 679 mmHg 85%
    Show more